TimeCST,TemperatureF,Dew PointF,Humidity,Sea Level PressureIn,VisibilityMPH,Wind Direction,Wind SpeedMPH,Gust SpeedMPH,PrecipitationIn,Events,Conditions,WindDirDegrees,DateUTC
12:10 AM,27.0,26.1,96,29.93,10.0,WNW,3.5,-,N/A,,Clear,300,2011-01-28 06:10:00
12:30 AM,26.1,24.8,95,29.93,10.0,Calm,Calm,-,N/A,,Clear,0,2011-01-28 06:30:00
12:50 AM,28.4,27.5,96,29.92,10.0,Calm,Calm,-,N/A,,Clear,0,2011-01-28 06:50:00
1:10 AM,27.0,26.1,96,29.92,10.0,SW,3.5,-,N/A,,Clear,230,2011-01-28 07:10:00
1:30 AM,25.9,25.2,97,29.92,10.0,Calm,Calm,-,N/A,,Clear,0,2011-01-28 07:30:00
1:50 AM,26.2,25.5,97,29.92,10.0,Calm,Calm,-,N/A,,Clear,0,2011-01-28 07:50:00
2:10 AM,26.6,26.2,99,29.92,7.0,Calm,Calm,-,N/A,,Clear,0,2011-01-28 08:10:00
2:30 AM,25.7,25.2,98,29.91,7.0,Calm,Calm,-,N/A,,Clear,0,2011-01-28 08:30:00
2:50 AM,24.8,24.3,98,29.91,10.0,Calm,Calm,-,N/A,,Clear,0,2011-01-28 08:50:00
3:10 AM,25.3,24.8,98,29.91,7.0,SSW,3.5,-,N/A,,Clear,200,2011-01-28 09:10:00
3:30 AM,25.5,25.0,98,29.90,7.0,Calm,Calm,-,N/A,,Clear,0,2011-01-28 09:30:00
3:50 AM,25.2,24.4,97,29.90,7.0,Calm,Calm,-,N/A,,Clear,0,2011-01-28 09:50:00
4:10 AM,25.5,24.8,97,29.89,10.0,Calm,Calm,-,N/A,,Clear,0,2011-01-28 10:10:00
4:30 AM,24.8,24.3,98,29.89,7.0,Calm,Calm,-,N/A,,Clear,0,2011-01-28 10:30:00
4:50 AM,25.5,24.8,97,29.88,10.0,Calm,Calm,-,N/A,,Clear,0,2011-01-28 10:50:00
5:10 AM,25.7,25.3,99,29.88,7.0,Calm,Calm,-,N/A,,Clear,0,2011-01-28 11:10:00
5:30 AM,24.4,23.9,98,29.88,10.0,Calm,Calm,-,N/A,,Clear,0,2011-01-28 11:30:00
5:50 AM,23.0,22.3,97,29.87,10.0,Calm,Calm,-,N/A,,Clear,0,2011-01-28 11:50:00
6:10 AM,23.9,23.4,98,29.86,10.0,Calm,Calm,-,N/A,,Clear,0,2011-01-28 12:10:00
6:30 AM,24.4,23.9,98,29.85,7.0,South,4.6,-,N/A,,Clear,170,2011-01-28 12:30:00
6:50 AM,25.5,25.0,98,29.85,10.0,SSE,3.5,-,N/A,,Clear,160,2011-01-28 12:50:00
7:10 AM,25.3,24.6,97,29.85,10.0,South,3.5,-,N/A,,Clear,190,2011-01-28 13:10:00
7:30 AM,26.4,25.7,97,29.86,10.0,SSW,4.6,-,N/A,,Clear,200,2011-01-28 13:30:00
7:50 AM,25.3,24.1,95,29.86,10.0,SSW,4.6,-,N/A,,Clear,210,2011-01-28 13:50:00
8:10 AM,24.6,23.7,96,29.85,10.0,Calm,Calm,-,N/A,,Clear,0,2011-01-28 14:10:00
8:30 AM,27.1,26.4,97,29.85,10.0,Calm,Calm,-,N/A,,Clear,0,2011-01-28 14:30:00
8:50 AM,28.8,27.9,96,29.85,10.0,SSW,4.6,-,N/A,,Clear,200,2011-01-28 14:50:00
9:10 AM,32.0,29.8,92,29.85,10.0,SW,8.1,-,N/A,,Clear,220,2011-01-28 15:10:00
9:30 AM,32.9,30.4,90,29.84,10.0,SW,8.1,-,N/A,,Clear,230,2011-01-28 15:30:00
9:50 AM,34.7,30.9,86,29.84,10.0,SW,6.9,-,N/A,,Clear,230,2011-01-28 15:50:00
10:10 AM,36.3,31.1,81,29.85,10.0,WSW,8.1,-,N/A,,Clear,240,2011-01-28 16:10:00
10:30 AM,37.4,31.3,79,29.85,10.0,WSW,6.9,-,N/A,,Clear,250,2011-01-28 16:30:00
10:50 AM,39.2,30.9,72,29.84,10.0,West,10.4,-,N/A,,Clear,280,2011-01-28 16:50:00
11:10 AM,39.2,31.8,75,29.84,10.0,West,9.2,-,N/A,,Clear,260,2011-01-28 17:10:00
11:30 AM,40.5,32.0,72,29.84,10.0,West,4.6,-,N/A,,Clear,260,2011-01-28 17:30:00
11:50 AM,41.9,32.2,68,29.83,10.0,West,6.9,-,N/A,,Clear,260,2011-01-28 17:50:00
12:10 PM,43.3,32.5,66,29.83,10.0,West,9.2,-,N/A,,Clear,270,2011-01-28 18:10:00
12:30 PM,43.7,32.9,66,29.82,10.0,West,9.2,-,N/A,,Clear,260,2011-01-28 18:30:00
12:50 PM,44.4,33.1,64,29.82,10.0,West,8.1,-,N/A,,Clear,260,2011-01-28 18:50:00
1:10 PM,45.1,33.3,63,29.81,10.0,West,9.2,-,N/A,,Clear,260,2011-01-28 19:10:00
1:30 PM,46.4,33.6,61,29.80,10.0,WSW,8.1,-,N/A,,Clear,250,2011-01-28 19:30:00
1:50 PM,46.4,34.0,62,29.80,10.0,West,9.2,-,N/A,,Clear,260,2011-01-28 19:50:00
2:10 PM,47.1,34.2,61,29.80,10.0,West,8.1,-,N/A,,Clear,270,2011-01-28 20:10:00
2:30 PM,47.7,35.1,62,29.80,10.0,West,9.2,-,N/A,,Clear,270,2011-01-28 20:30:00
2:50 PM,48.0,34.9,60,29.80,10.0,West,10.4,-,N/A,,Clear,270,2011-01-28 20:50:00
3:10 PM,48.2,34.7,60,29.80,10.0,West,8.1,-,N/A,,Clear,270,2011-01-28 21:10:00
3:30 PM,48.2,34.7,60,29.80,10.0,West,9.2,-,N/A,,Clear,270,2011-01-28 21:30:00
3:50 PM,47.8,34.7,60,29.82,10.0,West,8.1,-,N/A,,Clear,270,2011-01-28 21:50:00
4:10 PM,47.8,34.7,60,29.82,10.0,West,9.2,-,N/A,,Clear,260,2011-01-28 22:10:00
4:30 PM,47.5,34.9,62,29.82,10.0,West,8.1,-,N/A,,Clear,260,2011-01-28 22:30:00
4:50 PM,46.8,34.2,62,29.82,10.0,West,9.2,-,N/A,,Clear,280,2011-01-28 22:50:00
5:10 PM,45.5,34.5,65,29.83,10.0,West,9.2,-,N/A,,Clear,280,2011-01-28 23:10:00
5:30 PM,44.4,33.3,65,29.84,10.0,West,9.2,-,N/A,,Clear,270,2011-01-28 23:30:00
5:50 PM,42.8,33.4,70,29.84,10.0,WNW,5.8,-,N/A,,Clear,290,2011-01-28 23:50:00
6:10 PM,41.7,33.3,72,29.85,10.0,West,8.1,-,N/A,,Clear,280,2011-01-29 00:10:00
6:30 PM,41.0,32.9,73,29.85,10.0,West,8.1,-,N/A,,Clear,280,2011-01-29 00:30:00
6:50 PM,40.3,32.2,73,29.85,10.0,West,5.8,-,N/A,,Clear,280,2011-01-29 00:50:00
7:10 PM,38.3,32.0,78,29.86,10.0,West,6.9,-,N/A,,Clear,270,2011-01-29 01:10:00
7:30 PM,38.7,32.0,77,29.86,10.0,West,8.1,-,N/A,,Clear,280,2011-01-29 01:30:00
7:50 PM,37.9,32.0,79,29.87,10.0,West,11.5,-,N/A,,Clear,270,2011-01-29 01:50:00
8:10 PM,38.1,32.0,79,29.87,10.0,West,6.9,-,N/A,,Clear,280,2011-01-29 02:10:00
8:30 PM,36.7,31.6,82,29.88,10.0,NNW,3.5,-,N/A,,Clear,340,2011-01-29 02:30:00
8:50 PM,34.5,30.6,85,29.88,10.0,West,3.5,-,N/A,,Clear,270,2011-01-29 02:50:00
9:10 PM,34.0,30.4,87,29.88,10.0,WNW,4.6,-,N/A,,Clear,290,2011-01-29 03:10:00
9:30 PM,32.0,30.2,93,29.89,10.0,WNW,6.9,-,N/A,,Clear,300,2011-01-29 03:30:00
9:50 PM,34.5,31.1,87,29.90,10.0,NW,6.9,-,N/A,,Clear,320,2011-01-29 03:50:00
10:10 PM,35.6,30.6,82,29.91,10.0,NW,8.1,-,N/A,,Clear,320,2011-01-29 04:10:00
10:30 PM,34.2,30.2,85,29.91,10.0,NW,4.6,-,N/A,,Clear,320,2011-01-29 04:30:00
10:50 PM,34.9,30.4,84,29.91,10.0,NW,5.8,-,N/A,,Clear,320,2011-01-29 04:50:00
11:10 PM,32.9,29.7,88,29.91,10.0,NNW,3.5,-,N/A,,Clear,330,2011-01-29 05:10:00
11:30 PM,34.0,29.8,85,29.92,10.0,NW,3.5,-,N/A,,Clear,320,2011-01-29 05:30:00
11:50 PM,32.0,29.1,89,29.92,10.0,NNW,6.9,-,N/A,,Clear,330,2011-01-29 05:50:00